Вернуться в каталог

STARLINK-37734

АктивенСвязьSSO
NORAD 69305·PAYLOAD·🇺🇸 United States

Запущен May 30, 2026 с Vandenberg Space Force Base

Loading…

Ближайшие Пролёты (ближайшие 24 часа)

TLE

СвежийSource: CelesTrak SupGP

Эпоха: Sep 14, 2026, 14:49 UTC

1 69305C 26119K   26257.61784722 -.00018627  00000+0 -57815-3 0  2572
2 69305  97.2829 282.4307 0001130 107.4330 168.5469 15.33453039    17

Отслеживайте STARLINK-37734 в реальном времени с AllMySat

Download on the App Store